SPCBI EPSY-EPLL

Flight info

Callsign SPCBI
Flight time N/A
Altitude 16500
Route EPSY/01 DCT EPSYE DCT EPSYZ DCT EPLLX EPLLL EPLLY
Aircraft SF50/L-SBDGRWY/LB2U2

Departure

Time N/A
Airport Olsztyn-Mazury Airport (EPSY)

Arrival

Time 2026-04-20 21:00
Airport Łódź Władysław Reymont Airport (EPLL)
Time Latitude Longitude Altitude Speed Heading
2026-04-20 20:33 52.35859 20.49642 10869 ft 220 kts 223°
2026-04-20 20:33 52.34745 20.47939 10153 ft 213 kts 223°
2026-04-20 20:33 52.33711 20.46337 10106 ft 207 kts 224°
2026-04-20 20:34 52.32704 20.44554 10116 ft 214 kts 229°
2026-04-20 20:34 52.31729 20.42667 10121 ft 218 kts 230°
2026-04-20 20:34 52.30751 20.40771 10123 ft 219 kts 230°
2026-04-20 20:34 52.29757 20.38881 10126 ft 220 kts 229°
2026-04-20 20:35 52.28765 20.37018 9947 ft 208 kts 229°
2026-04-20 20:35 52.27804 20.35209 8897 ft 214 kts 228°
2026-04-20 20:35 52.26839 20.33373 8175 ft 208 kts 228°
2026-04-20 20:35 52.25934 20.31651 8141 ft 203 kts 227°
2026-04-20 20:36 52.24989 20.29873 8147 ft 209 kts 227°
2026-04-20 20:36 52.24035 20.28088 8147 ft 211 kts 227°
2026-04-20 20:36 52.23104 20.26342 7449 ft 205 kts 227°
2026-04-20 20:36 52.22164 20.24569 6600 ft 206 kts 226°
2026-04-20 20:37 52.21235 20.22812 5777 ft 203 kts 226°
2026-04-20 20:37 52.20313 20.21078 4961 ft 201 kts 226°
2026-04-20 20:37 52.19398 20.19361 4141 ft 200 kts 226°
2026-04-20 20:37 52.18486 20.17655 3351 ft 200 kts 225°
2026-04-20 20:38 52.17590 20.15980 2956 ft 186 kts 226°
2026-04-20 20:38 52.16720 20.14364 2955 ft 195 kts 225°
2026-04-20 20:38 52.15816 20.12686 2961 ft 198 kts 225°
2026-04-20 20:38 52.14903 20.10980 2963 ft 201 kts 225°
2026-04-20 20:39 52.13981 20.09261 2967 ft 201 kts 226°
2026-04-20 20:39 52.13070 20.07572 2968 ft 201 kts 226°
2026-04-20 20:39 52.12148 20.05858 2965 ft 201 kts 225°
2026-04-20 20:39 52.11233 20.04152 2966 ft 200 kts 225°
2026-04-20 20:40 52.10316 20.02450 2966 ft 200 kts 225°
2026-04-20 20:40 52.09394 20.00737 2962 ft 202 kts 225°
2026-04-20 20:40 52.08464 19.99010 2962 ft 203 kts 225°
2026-04-20 20:40 52.07535 19.97290 2964 ft 202 kts 225°
2026-04-20 20:41 52.06612 19.95579 2960 ft 200 kts 225°
2026-04-20 20:41 52.05699 19.93876 2959 ft 200 kts 225°
2026-04-20 20:41 52.04775 19.92168 2961 ft 201 kts 225°
2026-04-20 20:41 52.03850 19.90462 2961 ft 201 kts 225°
2026-04-20 20:42 52.02936 19.88770 2958 ft 202 kts 225°
2026-04-20 20:42 52.02007 19.87047 2959 ft 203 kts 225°
2026-04-20 20:42 52.01072 19.85320 2961 ft 204 kts 225°
2026-04-20 20:42 52.00132 19.83591 2960 ft 204 kts 225°
2026-04-20 20:43 51.99198 19.81874 2961 ft 202 kts 225°
2026-04-20 20:43 51.98269 19.80162 2960 ft 202 kts 225°
2026-04-20 20:43 51.97339 19.78453 2961 ft 202 kts 225°
2026-04-20 20:43 51.96407 19.76750 2961 ft 202 kts 225°
2026-04-20 20:44 51.95475 19.75045 2959 ft 202 kts 225°
2026-04-20 20:44 51.94545 19.73339 2959 ft 202 kts 225°
2026-04-20 20:44 51.93613 19.71625 2960 ft 203 kts 225°
2026-04-20 20:44 51.92677 19.69911 2962 ft 203 kts 224°
2026-04-20 20:45 51.91741 19.68196 2963 ft 204 kts 224°
2026-04-20 20:45 51.90799 19.66470 2962 ft 203 kts 224°
2026-04-20 20:45 51.89866 19.64764 2961 ft 202 kts 224°
2026-04-20 20:45 51.89018 19.62983 2954 ft 204 kts 239°
2026-04-20 20:46 51.88531 19.60819 2930 ft 199 kts 251°
2026-04-20 20:46 51.88101 19.58710 2137 ft 202 kts 249°
2026-04-20 20:46 51.87608 19.56593 1642 ft 191 kts 247°
2026-04-20 20:46 51.87128 19.54599 1634 ft 194 kts 247°
2026-04-20 20:47 51.86633 19.52522 1643 ft 200 kts 247°
2026-04-20 20:47 51.86158 19.50504 1644 ft 183 kts 248°
2026-04-20 20:47 51.85747 19.48683 1628 ft 162 kts 248°
2026-04-20 20:47 51.85345 19.47133 1628 ft 139 kts 244°
2026-04-20 20:48 51.85012 19.45770 1631 ft 121 kts 245°
2026-04-20 20:48 51.84688 19.44560 1627 ft 117 kts 246°
2026-04-20 20:48 51.84392 19.43330 1644 ft 117 kts 242°
2026-04-20 20:48 51.84027 19.42161 1642 ft 119 kts 242°
2026-04-20 20:49 51.83758 19.40902 1655 ft 117 kts 249°
2026-04-20 20:49 51.83499 19.39639 1644 ft 119 kts 250°
2026-04-20 20:49 51.83248 19.38366 1639 ft 119 kts 250°
2026-04-20 20:49 51.82955 19.37128 1637 ft 117 kts 243°
2026-04-20 20:50 51.82650 19.35900 1634 ft 118 kts 245°
2026-04-20 20:50 51.82342 19.34658 1642 ft 120 kts 245°
2026-04-20 20:50 51.82043 19.33375 1643 ft 123 kts 246°
2026-04-20 20:50 51.81728 19.32107 1642 ft 121 kts 246°
2026-04-20 20:51 51.81534 19.31262 1644 ft 121 kts 247°
2026-04-20 20:51 51.81109 19.30146 1632 ft 113 kts 206°
2026-04-20 20:51 51.80409 19.29737 1633 ft 103 kts 177°
2026-04-20 20:51 51.79762 19.29919 1632 ft 91 kts 141°
2026-04-20 20:52 51.79231 19.30480 1636 ft 90 kts 136°
2026-04-20 20:52 51.78708 19.31035 1636 ft 92 kts 137°
2026-04-20 20:52 51.78183 19.31618 1635 ft 91 kts 136°
2026-04-20 20:52 51.77655 19.32171 1633 ft 90 kts 137°
2026-04-20 20:53 51.77136 19.32731 1631 ft 90 kts 137°
2026-04-20 20:53 51.76612 19.33280 1632 ft 89 kts 136°
2026-04-20 20:53 51.76083 19.33831 1635 ft 91 kts 137°
2026-04-20 20:53 51.75559 19.34405 1634 ft 92 kts 136°
2026-04-20 20:54 51.75111 19.35089 1637 ft 86 kts 113°
2026-04-20 20:54 51.74932 19.35977 1639 ft 83 kts 95°
2026-04-20 20:54 51.74968 19.36904 1644 ft 84 kts 83°
2026-04-20 20:54 51.75036 19.37832 1645 ft 83 kts 83°
2026-04-20 20:55 51.75103 19.38736 1642 ft 80 kts 84°
2026-04-20 20:55 51.75169 19.39630 1642 ft 81 kts 83°
2026-04-20 20:55 51.75230 19.40540 1645 ft 82 kts 84°
2026-04-20 20:55 51.75296 19.41458 1644 ft 82 kts 85°
2026-04-20 20:56 51.75342 19.42364 1635 ft 80 kts 85°
2026-04-20 20:56 51.75400 19.43276 1635 ft 83 kts 84°
2026-04-20 20:56 51.75485 19.44191 1636 ft 83 kts 79°
2026-04-20 20:56 51.75547 19.45119 1637 ft 84 kts 85°
2026-04-20 20:57 51.75609 19.46050 1642 ft 84 kts 84°
2026-04-20 20:57 51.75610 19.46985 1641 ft 84 kts 101°
2026-04-20 20:57 51.75283 19.47772 1641 ft 88 kts 130°
2026-04-20 20:57 51.74690 19.48155 1610 ft 100 kts 163°
2026-04-20 20:58 51.73998 19.47784 1549 ft 115 kts 213°
2026-04-20 20:58 51.73579 19.46678 1434 ft 117 kts 255°
2026-04-20 20:58 51.73412 19.45478 1276 ft 105 kts 254°
2026-04-20 20:58 51.73202 19.44355 1131 ft 104 kts 251°
2026-04-20 20:59 51.72983 19.43247 989 ft 103 kts 249°
2026-04-20 20:59 51.72748 19.42163 843 ft 101 kts 249°
2026-04-20 20:59 51.72482 19.41140 717 ft 98 kts 248°
2026-04-20 20:59 51.72256 19.40133 619 ft 87 kts 251°
2026-04-20 21:00 51.72096 19.39408 593 ft 25 kts 250°
2026-04-20 21:00 51.72109 19.39428 594 ft 14 kts 72°
2026-04-20 21:00 51.72175 19.39758 593 ft 47 kts 70°
2026-04-20 21:00 51.72285 19.40257 597 ft 47 kts 70°
2026-04-20 21:01 51.72414 19.40575 597 ft 26 kts 346°
2026-04-20 21:01 51.72493 19.40531 598 ft 0 kts 338°
2026-04-20 21:01 51.72499 19.40526 598 ft 5 kts 332°
2026-04-20 21:02 51.72566 19.40420 598 ft 17 kts 322°
2026-04-20 21:02 51.72671 19.40355 598 ft 9 kts 327°
2026-04-20 21:02 51.72701 19.40335 598 ft 0 kts 344°